This is the latest recevied weather packets stored in our database for station/object VE3ZEB-1. If no packets are shown the sender has not sent any weather packets the latest 10 day(s).
| Time | Temp. | Humidity | Pressure | Rain* | Wind** | Luminosity | Snow |
|---|---|---|---|---|---|---|---|
| 1777664440 | 12.22° C | 42% | 679.6 hPa | 0 mm | - | 161 W/m² | - |
| 1777663820 | 12.22° C | 43% | 679.6 hPa | 0 mm | - | 361 W/m² | - |
| 1777661460 | 12.22° C | 42% | 679.6 hPa | 0 mm | - | 574 W/m² | - |
| 1777659621 | 12.78° C | 45% | 679.6 hPa | 0 mm | - | 755 W/m² | - |
| 1777656641 | 13.33° C | 45% | 679.6 hPa | 0 mm | - | 743 W/m² | - |
| 1777652422 | 13.89° C | 51% | 679.6 hPa | 0 mm | - | 582 W/m² | - |
| 1777649463 | 10.56° C | 59% | 679.5 hPa | 0 mm | - | 465 W/m² | - |
| 1777645824 | 8.33° C | 65% | 679.4 hPa | 0 mm | - | 235 W/m² | - |
| 1777636219 | 3.33° C | 76% | 679.2 hPa | 0 mm | - | 60 W/m² | - |
| 1777635619 | 2.78° C | 81% | 679.2 hPa | 0 mm | - | 51 W/m² | - |
| 1777630820 | 2.22° C | 75% | 679.2 hPa | 0 mm | - | 1 W/m² | - |
| 1777629018 | 2.78° C | 75% | 679.2 hPa | 0 mm | - | 0 W/m² | - |
| 1777623020 | 2.78° C | 75% | 679.2 hPa | 0 mm | - | 0 W/m² | - |
| 1777620620 | 2.22° C | 75% | 679.2 hPa | 0 mm | - | 0 W/m² | - |
| 1777619420 | 2.22° C | 75% | 679.2 hPa | 0 mm | - | 0 W/m² | - |
| 1777617021 | 2.22° C | 75% | 679.2 hPa | 0 mm | - | 0 W/m² | - |
| 1777613422 | 1.11° C | 75% | 679.1 hPa | 0 mm | - | 0 W/m² | - |
| 1777612822 | 1.11° C | 75% | 679.1 hPa | 0 mm | - | 0 W/m² | - |
| 1777608023 | 1.67° C | 73% | 679.2 hPa | 0 mm | - | 0 W/m² | - |
| 1777606823 | 2.22° C | 72% | 679.2 hPa | 0 mm | - | 0 W/m² | - |
| 1777606223 | 2.22° C | 72% | 679.2 hPa | 0 mm | - | 0 W/m² | - |
| 1777605024 | 2.78° C | 72% | 679.2 hPa | 0 mm | - | 0 W/m² | - |
| 1777604444 | 2.78° C | 71% | 679.2 hPa | 0 mm | - | 0 W/m² | - |
| 1777600824 | 3.89° C | 67% | 679.3 hPa | 0 mm | - | 0 W/m² | - |
| 1777597825 | 5.56° C | 63% | 679.3 hPa | 0 mm | - | 0 W/m² | - |
* Rain latest hour (hover to see other rain measurements)
** Current wind speed in m/s (hover to see current wind gust speed)